Погода в Старых Тойси

Россия / Чувашская Республика     55°04′24″N   47°49′16″E
темп.,
°C
ветер,
м/с
пор.,
м/с
влажн.,
%
обл.,
%
осадки,
мм/ч
давл.,
гПа
погр.,
м
21 июня, пн
пн2100:00+19з22860 0.0 102213
03:00+18з22900 0.0 102214
06:00+22з23790 0.0 1022139
09:00+26з33640 0.0 1022698
12:00+29з23493 0.0 10221605
15:00+30зсз33455 0.0 10211888
18:00+28зсз24635 0.0 1020167
21:00+23сз22795 0.0 102225
22 июня, вт
вт2200:00+21з228319 0.0 102215
03:00+20зсз22893 0.0 102218
06:00+23зсз23813 0.0 1023161
09:00+27сз22645 0.0 1022653
12:00+30ссз115140 0.0 10221485
15:00+31ссв02456 0.0 10211826
18:00+24з4776100 0.4 1021124
21:00+21ю3591100 6.8 102298
23 июня, ср
ср2300:00+22зсз227034 0.1 102112
03:00+20зсз2285100 0.1 102114
06:00+22сз24825 0.0 1021154
09:00+27сз33650 0.0 1021607
12:00+29ссз23510 0.0 10201668
15:00+30с334964 0.0 10201555
18:00+26зюз36710 0.8 1018178
21:00+22ю118399 2.9 102011
24 июня, чт
чт2400:00+21сз118498 0.1 101911
03:00+19з348415 0.3 101958
06:00+22ссз11805 0.0 1018121
09:00+27сз22675 0.1 1018544
12:00+29с225363 0.0 10181121
15:00+30ссв225198 0.0 10171344
18:00+29всв11621 0.1 1016561
21:00+22з228738 2.1 101725
25 июня, пт
пт2500:00+20зсз338689 1.4 101749
03:00+19з22836 1.4 101613
06:00+22зсз238291 0.0 1016117
09:00+27зюз226527 0.0 1016490
12:00+30з235364 0.0 10151227
15:00+31с234880 0.0 10141555
18:00+26з5873100 0.4 1013150
21:00+23з2257100 1.7 101311